Cross City, FL

12:27 PM EST on December 11, 2019 (GMT -0500)
Cross City

Weather History for KCTY - October, 2019

Change the Weather History Date:

Friday, October 4, 2019

  Actual Average Record
Temperature  
Mean Temperature 76 °F 74 °F  
Max Temperature 91 °F 85 °F 93 °F (2013)
Min Temperature 61 °F 63 °F 44 °F (2011)
Degree Days  
Heating Degree Days 0    
Month to date heating degree days 0  
Since 1 July heating degree days 0  
Cooling Degree Days 11    
Month to date cooling degree days 57  
Year to date cooling degree days 2814  
Growing Degree Days 26 (Base 50)    
Moisture  
Dew Point 66 °F    
Average Humidity 78    
Maximum Humidity 100    
Minimum Humidity 43    
Precipitation  
Precipitation 0.00 in 0.14 in 1.36 in (1999)
Month to date precipitation 0.00 0.61  
Year to date precipitation 47.47 40.44  
Sea Level Pressure  
Sea Level Pressure 30.01 in    
Wind  
Wind Speed 2 mph (NE)    
Max Wind Speed 8 mph    
Max Gust Speed -    
Visibility 10 miles    
Events      
T = Trace of Precipitation, MM = Missing Value Source: NWS Daily Summary

Daily Weather History Graph

Daily Weather History Graph

Search for Another Location

Airport or City:

Astronomy

Oct. 04, 2019 Rise Set
Actual Time 7:27 AM EDT 7:14 PM EDT
Civil Twilight 7:03 AM EDT 7:38 PM EDT
Nautical Twilight 6:35 AM EDT 8:05 PM EDT
Astronomical Twilight 6:08 AM EDT 8:33 PM EDT
Moon 1:34 PM EDT (10/4) No Moon Set
Length of Visible Light 12h 34m
Length of Day
11h 47m
Waxing Crescent, 39% of the Moon is Illuminated
Oct 4
Waxing Crescent
Oct 5
First Quarter
Oct 13
Full
Oct 21
Last Quarter
Oct 27
New

Hourly Weather History & Observations

Time (EDT) Temp. Heat Index Dew Point Humidity Pressure Visibility Wind Dir Wind Speed Gust Speed Precip Events Conditions
12:15 AM 69.1 °F - 66.7 °F 92% 30.03 in 10.0 mi Calm Calm - N/A   Unknown
12:35 AM 67.8 °F - 65.3 °F 92% 30.03 in 10.0 mi Calm Calm - N/A   Unknown
12:55 AM 66.9 °F - 65.1 °F 94% 30.03 in 10.0 mi Calm Calm - N/A   Unknown
1:15 AM 66.0 °F - 64.2 °F 94% 30.02 in 10.0 mi Calm Calm - N/A   Unknown
1:35 AM 66.4 °F - 64.6 °F 94% 30.02 in 10.0 mi Calm Calm - N/A   Unknown
1:55 AM 65.7 °F - 64.0 °F 94% 30.02 in 10.0 mi Calm Calm - N/A   Unknown
2:15 AM 64.6 °F - 63.3 °F 96% 30.02 in 10.0 mi NNE 3.5 mph - N/A   Unknown
2:35 AM 64.6 °F - 63.3 °F 96% 30.02 in 10.0 mi Calm Calm - N/A   Unknown
2:55 AM 66.0 °F - 65.1 °F 97% 30.02 in 10.0 mi Calm Calm - N/A   Unknown
3:15 AM 64.2 °F - 63.0 °F 96% 30.02 in 10.0 mi Calm Calm - N/A   Unknown
3:35 AM 64.2 °F - 63.5 °F 98% 30.01 in 10.0 mi Calm Calm - N/A   Unknown
3:55 AM 63.9 °F - 63.0 °F 97% 30.01 in 10.0 mi Calm Calm - N/A   Unknown
4:15 AM 62.6 °F - 62.6 °F 100% 30.01 in 10.0 mi Calm Calm - N/A   Unknown
4:35 AM 62.4 °F - 61.2 °F 96% 30.01 in 7.0 mi Calm Calm - N/A   Unknown
4:55 AM 62.4 °F - 61.3 °F 96% 30.01 in - Calm Calm - N/A   Unknown
5:15 AM 62.1 °F - 61.0 °F 96% 30.01 in 10.0 mi Calm Calm - N/A   Unknown
5:35 AM 62.1 °F - 60.8 °F 96% 30.02 in 10.0 mi Calm Calm - N/A   Unknown
5:55 AM 61.9 °F - 60.4 °F 95% 30.02 in 10.0 mi NNE 3.5 mph - N/A   Unknown
6:15 AM 61.0 °F - 59.9 °F 96% 30.02 in 10.0 mi Calm Calm - N/A   Unknown
6:35 AM 61.3 °F - 60.3 °F 96% 30.02 in 10.0 mi Calm Calm - N/A   Unknown
6:55 AM 61.2 °F - 59.9 °F 96% 30.03 in 7.0 mi Calm Calm - N/A   Unknown
7:15 AM 60.8 °F - 60.8 °F 100% 30.04 in 10.0 mi Calm Calm - N/A   Unknown
7:35 AM 60.8 °F - 59.9 °F 97% 30.04 in 0.8 mi Calm Calm - N/A   Mist
7:55 AM 61.9 °F - 61.0 °F 97% 30.05 in 10.0 mi Calm Calm - N/A   Unknown
8:15 AM 64.8 °F - 63.9 °F 97% 30.06 in 10.0 mi NE 3.5 mph - N/A   Unknown
8:35 AM 67.3 °F - 66.4 °F 97% 30.06 in 10.0 mi Calm Calm - N/A   Unknown
8:55 AM 69.8 °F - 68.0 °F 94% 30.06 in 10.0 mi Calm Calm - N/A   Unknown
9:15 AM 72.7 °F - 69.3 °F 89% 30.06 in 10.0 mi ESE 4.6 mph - N/A   Unknown
9:35 AM 74.3 °F - 69.4 °F 85% 30.07 in 10.0 mi East 4.6 mph - N/A   Unknown
9:55 AM 76.6 °F - 70.0 °F 80% 30.06 in 10.0 mi East 3.5 mph - N/A   Unknown
10:15 AM 78.8 °F - 69.8 °F 74% 30.06 in 10.0 mi ESE 4.6 mph - N/A   Unknown
10:35 AM 80.6 °F 83.9 °F 69.8 °F 70% 30.06 in 10.0 mi Calm Calm - N/A   Unknown
10:55 AM 81.3 °F 84.3 °F 68.5 °F 65% 30.06 in 10.0 mi Calm Calm - N/A   Unknown
11:15 AM 82.9 °F 85.8 °F 68.0 °F 60% 30.05 in 10.0 mi NE 3.5 mph - N/A   Unknown
11:35 AM 83.1 °F 85.2 °F 65.8 °F 56% 30.05 in 10.0 mi NE 4.6 mph - N/A   Unknown
11:55 AM 84.4 °F 87.1 °F 66.9 °F 56% 30.04 in 10.0 mi NE 5.8 mph - N/A   Unknown
12:35 PM 85.6 °F 87.6 °F 65.7 °F 51% 30.04 in 10.0 mi NNE 4.6 mph - N/A   Unknown
12:55 PM 86.4 °F 87.6 °F 64.0 °F 47% 30.03 in 10.0 mi NE 5.8 mph - N/A   Clear
1:15 PM 87.1 °F 87.5 °F 62.2 °F 43% 30.02 in 10.0 mi NNE 5.8 mph - N/A   Clear
1:35 PM 88.7 °F 90.1 °F 64.0 °F 44% 30.00 in 10.0 mi ENE 8.1 mph - N/A   Clear
1:55 PM 89.2 °F 91.3 °F 65.1 °F 45% 30.00 in 10.0 mi NE 3.5 mph - N/A   Clear
2:15 PM 88.7 °F 89.8 °F 63.5 °F 43% 29.99 in 10.0 mi SE 4.6 mph - N/A   Clear
2:35 PM 88.7 °F 89.8 °F 63.7 °F 43% 29.98 in 10.0 mi West 3.5 mph - N/A   Clear
2:55 PM 90.0 °F 91.7 °F 64.8 °F 43% 29.97 in 10.0 mi ESE 6.9 mph - N/A   Clear
3:15 PM 90.9 °F 93.1 °F 65.3 °F 43% 29.97 in 10.0 mi ENE 4.6 mph - N/A   Clear
3:35 PM 90.3 °F 92.2 °F 64.9 °F 43% 29.96 in 10.0 mi NNE 4.6 mph - N/A   Clear
3:55 PM 89.8 °F 91.8 °F 65.1 °F 44% 29.95 in 10.0 mi NNW 6.9 mph - N/A   Clear
4:15 PM 91.2 °F 94.1 °F 66.4 °F 44% 29.95 in 10.0 mi North 5.8 mph - N/A   Clear
4:35 PM 90.5 °F 92.5 °F 65.5 °F 43% 29.95 in 10.0 mi North 3.5 mph - N/A   Clear
4:55 PM 90.7 °F 93.6 °F 66.9 °F 45% 29.94 in 10.0 mi NNE 6.9 mph - N/A   Clear
5:15 PM 90.5 °F 93.8 °F 67.3 °F 46% 29.94 in 10.0 mi East 4.6 mph - N/A   Clear
5:35 PM 90.5 °F 94.2 °F 67.5 °F 47% 29.94 in 10.0 mi ENE 5.8 mph - N/A   Clear
5:55 PM 88.2 °F 93.7 °F 70.5 °F 56% 29.94 in 10.0 mi WSW 6.9 mph - N/A   Clear
6:15 PM 86.5 °F 92.1 °F 71.2 °F 60% 29.94 in 10.0 mi WSW 8.1 mph - N/A   Clear
6:35 PM 85.1 °F 90.4 °F 71.4 °F 63% 29.95 in 10.0 mi WSW 8.1 mph - N/A   Clear
6:55 PM 83.7 °F 88.6 °F 71.2 °F 66% 29.95 in 10.0 mi West 8.1 mph - N/A   Clear
7:15 PM 81.7 °F 85.8 °F 71.2 °F 70% 29.95 in 10.0 mi WNW 6.9 mph - N/A   Clear
7:35 PM 80.1 °F 83.6 °F 71.2 °F 74% 29.95 in 10.0 mi West 5.8 mph - N/A   Clear
7:55 PM 78.4 °F - 71.2 °F 78% 29.96 in 10.0 mi Calm Calm - N/A   Clear
8:15 PM 77.7 °F - 70.9 °F 79% 29.96 in 10.0 mi NW 3.5 mph - N/A   Clear
8:35 PM 75.4 °F - 70.5 °F 85% 29.97 in 10.0 mi Calm Calm - N/A   Clear
8:55 PM 75.0 °F - 70.9 °F 87% 29.97 in 10.0 mi Calm Calm - N/A   Clear
9:15 PM 73.9 °F - 70.7 °F 90% 29.98 in 10.0 mi Calm Calm - N/A   Clear
9:35 PM 73.0 °F - 70.2 °F 91% 29.98 in 10.0 mi NNE 4.6 mph - N/A   Clear
9:55 PM 74.1 °F - 70.9 °F 90% 29.98 in 10.0 mi Calm Calm - N/A   Clear
10:15 PM 74.1 °F - 70.9 °F 90% 30.00 in 10.0 mi East 8.1 mph - N/A   Clear
10:35 PM 74.1 °F - 70.5 °F 88% 30.01 in 10.0 mi Calm Calm - N/A   Clear
10:55 PM 73.4 °F - 70.5 °F 91% 30.01 in 10.0 mi Calm Calm - N/A   Clear
11:15 PM 72.0 °F - 69.3 °F 91% 30.01 in 10.0 mi Calm Calm - N/A   Clear
11:35 PM 71.8 °F - 69.4 °F 92% 30.01 in 10.0 mi Calm Calm - N/A   Clear
11:55 PM 70.7 °F - 68.7 °F 93% 30.01 in 10.0 mi Calm Calm - N/A   Clear